sat.trackr.live / text

‹ back to catalog

STARLINK-32562

NORAD 62168 · 2024-225F

PAYLOAD ACTIVE UNKNOWN

§ Identity

Operator
Country
US
Launch date
2024-11-30
Launch site
AFWTR
Launch vehicle
Mass (kg)
RCS (m²)

Purposes: comms

External: N2YO · Heavens-Above · Gunter

§ Orbital elements

Epoch: 2026-09-21T18:07:42.884544Z

Period
96.11 min
Inclination
70.0017°
Eccentricity
0.0002957
Mean motion
14.98334118 rev/d
Perigee alt
570.0 km
Apogee alt
574.1 km
Semi-major
6,950.2 km
B*
1.8517e-4
RAAN
30.1049°
Arg perigee
266.4284°
Mean anomaly
93.6537°
Rev number
9,924

§ Raw data

STARLINK-325621 62168U 24225F   26264.75535746  .00002117  00000+0  18517-3 0  99952 62168  70.0017  30.1049 0002957 266.4284  93.6537 14.98334118 99241

JSON: /api/v1/satellites/62168 · /tle

For live sub-satellite position, see the globe view (requires WebGL).

§ Visibility from observer

Set your observer location to see the next 7 days of passes ≥ 10°. The values pass through the URL so the page stays shareable.

No JS? Fill the form by hand. The geolocation button needs JavaScript.